TimeCEST,TemperatureF,Dew PointF,Humidity,Sea Level PressureIn,VisibilityMPH,Wind Direction,Wind SpeedMPH,Gust SpeedMPH,PrecipitationIn,Events,Conditions,WindDirDegrees,DateUTC
12:55 AM,30.2,24.8,80,30.24,0.2,West,8.1,-,N/A,Fog-Snow,Light Snow,260,2012-10-08 22:55:00
1:55 AM,30.2,24.8,80,30.21,0.2,WSW,6.9,-,N/A,Fog-Snow,Light Snow,250,2012-10-08 23:55:00
2:00 AM,30,25,73,,0,WSW,6.9,,,Snow,Light Snow,250,2012-10-09 00:00:00
2:55 AM,30.2,24.8,80,30.18,0.1,South,11.5,-,N/A,Fog-Snow,Light Snow,190,2012-10-09 00:55:00
4:55 AM,30.2,24.8,80,30.15,0.1,West,11.5,-,N/A,Fog-Snow,Light Snow,260,2012-10-09 02:55:00
5:00 AM,29,25,77,,0,West,11.5,,,Snow,Light Snow,260,2012-10-09 03:00:00
5:55 AM,26.6,24.8,93,30.12,0.1,WNW,17.3,-,N/A,Fog-Snow,Light Snow,290,2012-10-09 03:55:00
6:55 AM,26.6,24.8,93,30.12,0.2,West,16.1,-,N/A,Fog-Snow,Light Snow,260,2012-10-09 04:55:00
7:55 AM,26.6,23.0,86,30.12,0.1,West,18.4,-,N/A,Fog-Snow,Light Snow,260,2012-10-09 05:55:00
8:00 AM,27,24,81,,0,West,18.4,,,Snow,Light Snow,260,2012-10-09 06:00:00
9:55 AM,26.6,23.0,86,30.12,0.2,NNW,31.1,-,N/A,Fog-Snow,Light Snow,330,2012-10-09 07:55:00
10:55 AM,26.6,23.0,86,30.12,0.2,North,32.2,-,N/A,Fog-Snow,Light Snow,10,2012-10-09 08:55:00
11:00 AM,27,24,81,,0,North,32.2,,,Snow,Light Snow,10,2012-10-09 09:00:00
11:55 AM,26.6,23.0,86,30.15,0.2,North,25.3,-,N/A,Fog-Snow,Light Snow,10,2012-10-09 09:55:00
12:55 PM,26.6,23.0,86,30.18,0.5,North,26.5,-,N/A,,Unknown,350,2012-10-09 10:55:00
1:55 PM,26.6,23.0,86,30.15,0.5,North,26.5,-,N/A,,Unknown,10,2012-10-09 11:55:00
2:00 PM,27,23,79,,0,North,26.5,,,Fog,Heavy Fog,10,2012-10-09 12:00:00
2:55 PM,26.6,23.0,86,30.15,0.5,North,24.2,-,N/A,,Unknown,10,2012-10-09 12:55:00
3:55 PM,26.6,23.0,86,30.18,0.2,NNE,21.9,-,N/A,,Unknown,30,2012-10-09 13:55:00
4:55 PM,26.6,23.0,86,30.18,0.1,North,15.0,-,N/A,Fog,Light Freezing Fog,10,2012-10-09 14:55:00
5:00 PM,27,23,77,,0,North,15.0,,,Fog,Heavy Fog,10,2012-10-09 15:00:00
5:55 PM,26.6,23.0,86,30.18,0.1,North,18.4,-,N/A,Fog,Light Freezing Fog,10,2012-10-09 15:55:00
6:55 PM,26.6,23.0,86,30.18,0.5,North,26.5,-,N/A,Fog,Light Freezing Fog,10,2012-10-09 16:55:00
7:55 PM,24.8,21.2,86,30.21,0.5,North,20.7,-,N/A,,Unknown,10,2012-10-09 17:55:00
8:00 PM,26,22,77,,0,North,20.7,,,Fog,Heavy Fog,10,2012-10-09 18:00:00
8:55 PM,26.6,23.0,86,30.21,0.5,North,23.0,-,N/A,,Unknown,10,2012-10-09 18:55:00
9:55 PM,26.6,23.0,86,30.21,0.5,North,19.6,-,N/A,,Unknown,10,2012-10-09 19:55:00
10:55 PM,24.8,21.2,86,30.18,0.5,NNE,20.7,-,N/A,,Unknown,20,2012-10-09 20:55:00
11:00 PM,26,21,76,,0,NNE,20.7,,,Fog,Heavy Fog,20,2012-10-09 21:00:00
11:55 PM,24.8,21.2,86,30.18,0.5,ENE,16.1,-,N/A,,Unknown,60,2012-10-09 21:55:00